Date String (YYYY-MM-DD hh:mm:ss) UTC,Instrument flags,Ambient pressure (hPa),Sample flow (lpm),Bypass flow (lpm),Sample temperature (°C),Ambient temperature (°C),ASC tube jacket temperature (°C),LED temperature (°C),Box temperature (°C),Sample RH (%),Span deviation,Mass concentration (μg/m³),Mass concentration (μg/m³),Mass concentration (μg/m³)
DateTimeUTC,F1_M11,P_M11,Q1_M11,Q2_M11,T1_M11,T2_M11,T3_M11,T4_M11,T5_M11,U1_M11,ZSPAN_M11,X0_M11,X2_M11,X1_M11
2022-07-07 14:00:00,,0829.2,5.01,0.00,31.3,28.2,00.0,39.5,32.2,33.7,-000.8,0011.45,0006.70,0006.12
2022-07-07 14:01:00,,0829.2,5.00,0.00,31.3,28.4,00.0,39.5,32.2,34.2,-000.7,0011.40,0006.68,0006.13
2022-07-07 14:02:00,,0829.2,5.00,0.00,31.3,28.5,00.0,39.5,32.2,34.4,-000.8,0010.91,0006.64,0006.11
2022-07-07 14:03:00,,0829.2,4.98,0.00,31.3,28.6,00.0,39.6,32.2,34.7,-000.5,0010.46,0006.58,0006.08
2022-07-07 14:04:00,,0829.1,5.01,0.00,31.3,28.7,00.0,39.6,32.3,34.6,-000.5,0010.23,0006.50,0006.01
2022-07-07 14:05:00,,0829.2,5.00,0.00,31.3,28.7,00.0,39.6,32.3,34.2,-000.2,0009.82,0006.45,0005.95
2022-07-07 14:06:00,,0829.2,5.01,0.00,31.3,28.8,00.0,39.6,32.4,34.1,0000.2,0009.74,0006.40,0005.90
2022-07-07 14:07:00,,0829.2,5.00,0.00,31.3,28.9,00.0,39.7,32.4,34.3,0000.2,0009.67,0006.35,0005.87
2022-07-07 14:08:00,,0829.2,5.00,0.00,31.3,28.9,00.0,39.7,32.4,34.8,0000.0,0009.73,0006.36,0005.87
2022-07-07 14:09:00,,0829.3,5.00,0.00,31.3,29.0,00.0,39.7,32.4,34.3,0000.0,0009.96,0006.36,0005.88
2022-07-07 14:10:00,,0829.3,5.00,0.00,31.4,29.0,00.0,39.7,32.5,34.9,0000.0,0010.39,0006.41,0005.90
2022-07-07 14:11:00,,0829.3,4.99,0.00,31.5,29.1,00.0,39.7,32.5,34.3,0000.0,0010.59,0006.49,0005.95
2022-07-07 14:12:00,,0829.3,5.00,0.00,31.6,29.1,00.0,39.7,32.6,33.8,0000.0,0011.18,0006.60,0005.99
2022-07-07 14:13:00,,0829.3,5.00,0.00,31.7,29.1,00.0,39.8,32.6,33.9,0000.0,0011.30,0006.66,0006.02
2022-07-07 14:14:00,,0829.3,4.99,0.00,31.7,28.6,00.0,39.7,32.6,34.3,0000.0,0011.46,0006.72,0006.05
2022-07-07 14:15:00,,0829.2,5.02,0.00,31.7,28.0,00.0,39.7,32.5,35.0,0000.0,0011.77,0006.83,0006.12
2022-07-07 14:16:00,,0829.2,4.99,0.00,31.8,27.7,00.0,39.7,32.5,34.4,0000.0,0011.95,0006.88,0006.17
2022-07-07 14:17:00,,0829.1,5.01,0.00,31.8,27.7,00.0,39.7,32.3,34.4,0000.0,0011.92,0006.88,0006.19
2022-07-07 14:18:00,,0829.1,5.00,0.00,31.7,27.8,00.0,39.7,32.3,34.6,0001.4,0011.86,0006.90,0006.22
2022-07-07 14:19:00,,0829.1,5.00,0.00,31.6,27.9,00.0,39.8,32.2,34.0,0001.4,0011.89,0006.92,0006.25
2022-07-07 14:20:00,,0829.0,4.98,0.00,31.6,28.1,00.0,39.8,32.2,34.6,0001.8,0011.71,0006.96,0006.28
2022-07-07 14:21:00,,0829.0,5.01,0.00,31.6,28.2,00.0,39.8,32.2,35.5,0001.6,0011.43,0006.98,0006.31
2022-07-07 14:22:00,,0829.1,4.99,0.00,31.7,28.3,00.0,39.8,32.4,34.7,0001.2,0011.42,0007.01,0006.33
2022-07-07 14:23:00,,0829.1,5.00,0.00,31.9,28.4,00.0,39.8,32.5,34.2,0001.4,0010.91,0006.96,0006.34
2022-07-07 14:24:00,,0829.1,5.01,0.00,32.0,28.5,00.0,39.8,32.5,33.7,0001.8,0010.89,0006.98,0006.36
2022-07-07 14:25:00,,0829.1,5.00,0.00,32.0,28.6,00.0,39.9,32.5,33.8,0001.2,0010.89,0006.98,0006.37
2022-07-07 14:26:00,,0829.2,5.00,0.00,32.0,28.7,00.0,39.9,32.5,33.5,0001.7,0010.73,0006.93,0006.35
2022-07-07 14:27:00,,0829.1,5.00,0.00,32.0,28.8,00.0,40.0,32.5,33.8,0001.2,0010.68,0006.94,0006.36
2022-07-07 14:28:00,,0829.1,4.99,0.00,31.9,28.9,00.0,40.0,32.5,33.9,0000.8,0010.82,0007.02,0006.40
2022-07-07 14:29:00,,0829.1,4.99,0.00,31.9,28.9,00.0,40.0,32.5,34.2,-000.5,0010.94,0007.08,0006.43
2022-07-07 14:30:00,,0829.0,5.01,0.00,31.9,29.0,00.0,40.1,32.5,32.9,-000.6,0011.21,0007.10,0006.41
2022-07-07 14:31:00,,0829.1,5.01,0.00,31.8,29.0,00.0,40.1,32.5,31.7,-000.6,0011.13,0007.05,0006.37
2022-07-07 14:32:00,,0829.1,5.01,0.00,31.8,29.1,00.0,40.1,32.5,32.5,-000.1,0010.98,0006.98,0006.32
2022-07-07 14:33:00,,0829.0,5.00,0.00,31.8,29.1,00.0,40.1,32.6,33.4,-000.0,0011.51,0006.96,0006.33
2022-07-07 14:34:00,,0829.1,5.00,0.00,31.7,29.0,00.0,40.1,32.6,34.2,-000.2,0012.22,0007.00,0006.35
2022-07-07 14:35:00,,0829.1,5.00,0.00,31.7,28.4,00.0,40.0,32.5,33.7,-000.6,0012.45,0006.97,0006.35
2022-07-07 14:36:00,,0829.1,4.99,0.00,31.7,27.9,00.0,40.0,32.4,32.6,-000.5,0012.38,0006.95,0006.34
2022-07-07 14:37:00,,0829.1,5.00,0.00,31.6,27.7,00.0,39.9,32.3,33.4,-000.3,0012.32,0006.94,0006.31
2022-07-07 14:38:00,,0829.1,5.01,0.00,31.4,27.7,00.0,39.9,32.2,33.1,0000.1,0012.24,0006.88,0006.27
2022-07-07 14:39:00,,0829.0,4.99,0.00,31.3,27.8,00.0,39.9,32.1,34.4,-000.1,0012.34,0006.87,0006.23
2022-07-07 14:40:00,,0829.0,5.02,0.00,31.3,28.0,00.0,39.8,32.2,35.9,0000.2,0012.26,0006.82,0006.21
2022-07-07 14:41:00,,0829.1,5.01,0.00,31.5,28.1,00.0,39.8,32.3,34.7,0000.3,0012.11,0006.82,0006.21
2022-07-07 14:42:00,,0829.0,4.99,0.00,31.6,28.2,00.0,39.8,32.4,34.2,0000.0,0012.24,0006.86,0006.24
2022-07-07 14:43:00,,0829.1,4.99,0.00,31.7,28.4,00.0,39.8,32.4,34.6,-001.0,0012.52,0006.88,0006.27
2022-07-07 14:44:00,,0829.1,5.02,0.00,31.7,28.5,00.0,39.8,32.4,34.0,-000.5,0012.10,0006.86,0006.26
2022-07-07 14:45:00,,0829.1,5.00,0.00,31.8,28.6,00.0,39.8,32.4,33.6,0000.0,0012.01,0006.86,0006.22
2022-07-07 14:46:00,,0829.1,5.00,0.00,31.8,28.7,00.0,39.9,32.4,33.4,0000.0,0012.01,0006.88,0006.20
2022-07-07 14:47:00,,0829.1,5.00,0.00,31.7,28.8,00.0,39.9,32.4,33.2,0000.0,0012.02,0006.87,0006.19
2022-07-07 14:48:00,,0829.1,5.00,0.00,31.7,28.8,00.0,39.9,32.4,33.3,0000.0,0011.98,0006.86,0006.20
2022-07-07 14:49:00,,0829.1,5.00,0.00,31.7,28.9,00.0,39.9,32.5,34.2,0000.0,0011.99,0006.89,0006.23
2022-07-07 14:50:00,,0829.1,4.99,0.00,31.7,29.0,00.0,40.0,32.5,34.2,0000.0,0011.74,0006.83,0006.23
2022-07-07 14:51:00,,0829.1,4.99,0.00,31.6,28.9,00.0,40.0,32.5,34.1,0000.0,0011.68,0006.83,0006.22
2022-07-07 14:52:00,,0829.1,5.01,0.00,31.6,28.3,00.0,39.9,32.4,33.6,0000.0,0011.65,0006.84,0006.22
2022-07-07 14:53:00,,0829.0,4.99,0.00,31.6,27.8,00.0,39.8,32.3,34.3,0000.0,0011.94,0006.84,0006.20
2022-07-07 14:54:00,,0829.0,5.00,0.00,31.5,27.6,00.0,39.8,32.2,33.5,0000.0,0011.98,0006.80,0006.16
2022-07-07 14:55:00,,0829.0,5.00,0.00,31.4,27.6,00.0,39.8,32.2,33.3,0000.0,0011.64,0006.73,0006.10
2022-07-07 14:56:00,,0829.0,5.02,0.00,31.3,27.7,00.0,39.8,32.1,33.3,0000.0,0011.10,0006.68,0006.07
2022-07-07 14:57:00,,0829.0,5.00,0.00,31.2,27.9,00.0,39.7,32.1,33.6,0000.0,0010.61,0006.62,0006.03
2022-07-07 14:58:00,,0829.0,5.00,0.00,31.2,28.0,00.0,39.7,32.1,33.3,0000.0,0010.55,0006.59,0006.00
2022-07-07 14:59:00,,0829.0,5.01,0.00,31.1,28.1,00.0,39.7,32.1,33.5,0000.0,0010.51,0006.56,0005.99
